Flag for Switzerland Weather past 2 weeks in Buchs, St. Gallen, Switzerland

Now
47 °F

Cool.


Feels Like: 44 °F
Forecast: 41 / 63 °F
Wind: 6 mph from Southeast

Location: Vaduz

Current Time: Oct 25, 2014 at 5:59:28 AM

Latest Report: Oct 25, 2014 at 4:00 AM


Visibility: N/A

Pressure: 30.15 "Hg

Humidity: 65%

Dew point: 35 °F

Location of BuchsLocation

Historic Weather in Buchs — Graph

°F

Buchs temperature yesterday

Maximum temperature yesterday: 53 °F (at 3:00 PM)
Minimum temperature yesterday: 36 °F (at 4:00 AM)
Average temperature yesterday: 44 °F

Past Weeks' High & Low Weather Summary

 TemperatureHumidityPressure
High78 °F (Oct 12, 3:00 PM)98% (Oct 24, 1:00 AM)30.34 "Hg (Oct 24, 1:00 AM)
Low36 °F (Oct 24, 4:00 AM)28% (Oct 12, 3:00 PM)29.73 "Hg (Oct 21, 8:00 PM)
Average57 °F75%30.02 "Hg
* Reported Oct 10 4:00 AM — Oct 25 4:00 AM, Buchs, Weather by CustomWeather, © 2014

Note: Actual official high and low records may vary slightly from our data, if they occured in-between our weather recording intervals... More about our weather records

Advertising

Buchs weather history for previous 24 hours

 ConditionsComfort  
Time TempWeatherWind HumidityBarometerVisibility
4:00 AM
Oct 25
47 °FCool.6 mph65%30.15 "HgN/A
3:00 AM46 °FCool.7 mph68%30.16 "HgN/A
2:00 AM46 °FFog.6 mph70%30.18 "Hg6 mi
1:00 AM45 °FCool.7 mph73%30.18 "HgN/A
12:00 AM45 °FCool.6 mph74%30.18 "HgN/A
11:00 PM
Oct 24
46 °FFog.6 mph73%30.19 "Hg6 mi
10:00 PM47 °FCool.6 mph72%30.17 "HgN/A
9:00 PM47 °FCool.6 mph74%30.17 "HgN/A
8:00 PM46 °FFog.6 mph75%30.17 "Hg7 mi
7:00 PM44 °FQuite cool.1 mph86%30.17 "HgN/A
6:00 PM46 °FCool.1 mph81%30.16 "HgN/A
5:00 PM51 °FPassing clouds.5 mph63%30.15 "Hg9 mi
4:00 PM53 °FCool.5 mph58%30.14 "HgN/A
3:00 PM53 °FCool.5 mph59%30.15 "HgN/A
2:00 PM51 °FPassing clouds.1 mph57%30.16 "Hg12 mi
1:00 PM49 °FCool.3 mph59%30.19 "HgN/A
12:00 PM47 °FCool.5 mph61%30.22 "HgN/A
11:00 AM46 °FPassing clouds.5 mph67%30.23 "Hg12 mi
10:00 AM42 °FQuite cool.3 mph75%30.25 "HgN/A
9:00 AM39 °FChilly.5 mph80%30.27 "HgN/A
8:00 AM40 °FFog.6 mph79%30.26 "Hg6 mi
7:00 AM39 °FChilly.3 mph82%30.27 "HgN/A
6:00 AM40 °FChilly.5 mph83%30.27 "HgN/A
5:00 AM40 °FFog.7 mph84%30.27 "Hg6 mi
Weather by CustomWeather, © 2014

See weather overviewHow to use our weather pages